When you browse on this site, cookies collect data to enhance your experience and personalize the content and advertising you see.
Visit our Privacy Policy to learn more. By continuing to use the site, you agree to this use of cookies and data.
  • In Romania
  • List of Countries
  • For 7 days
  • Water Temperature
  • Weather Map
  • Weather Widgets
  • user-avatar
    Login

    Hourly Weather Venice

    Today, 25 February, Tuesday

    Time Temperature Precipitation Wind Pressure Humidity
    00:00 +10°C° 0 mm 1 mps 762 mmHg 84%
    01:00 +10°C° 0 mm 1 mps 762 mmHg 85%
    02:00 +10°C° 0 mm 1 mps 761 mmHg 85%
    03:00 +10°C° 0 mm 1 mps 760 mmHg 85%
    04:00 +10°C° 0 mm 1 mps 759 mmHg 85%
    05:00 +10°C° 0 mm 1 mps 759 mmHg 85%
    06:00 +10°C° 0 mm 1 mps 759 mmHg 85%
    07:00 +10°C° 0 mm 1 mps 759 mmHg 85%
    08:00 +10°C° 0 mm 1 mps 758 mmHg 84%
    09:00 +10°C° 0 mm 0 mps 758 mmHg 83%
    10:00 +10°C° 0 mm 0 mps 758 mmHg 83%
    11:00 +10°C° 0 mm 0 mps 757 mmHg 82%
    12:00 +11°C° 0 mm 1 mps 757 mmHg 82%
    13:00 +12°C° 0 mm 1 mps 757 mmHg 82%
    14:00 +12°C° 0 mm 1 mps 756 mmHg 83%
    15:00 +12°C° 0 mm 1 mps 755 mmHg 84%
    16:00 +12°C° 0 mm 1 mps 754 mmHg 85%
    17:00 +11°C° 0 mm 1 mps 754 mmHg 87%
    18:00 +10°C° 0 mm 2 mps 754 mmHg 89%
    19:00 +10°C° 0 mm 2 mps 753 mmHg 91%
    20:00 +9°C° 0 mm 2 mps 753 mmHg 91%
    21:00 +9°C° 0 mm 2 mps 752 mmHg 92%
    22:00 +9°C° 0 mm 2 mps 751 mmHg 93%
    23:00 +10°C° 0 mm 1 mps 751 mmHg 93%

    Tomorrow, 26 February, Wednesday

    Time Temperature Precipitation Wind Pressure Humidity
    00:00 +10°C° 0 mm 1 mps 750 mmHg 93%
    01:00 +9°C° 0 mm 0 mps 749 mmHg 93%
    02:00 +10°C° 0 mm 1 mps 749 mmHg 93%
    03:00 +9°C° 0 mm 1 mps 748 mmHg 93%
    04:00 +9°C° 0 mm 1 mps 747 mmHg 93%
    05:00 +8°C° 0 mm 2 mps 746 mmHg 93%
    06:00 +8°C° 0 mm 3 mps 746 mmHg 93%
    07:00 +7°C° 0 mm 4 mps 746 mmHg 93%
    08:00 +8°C° 0 mm 5 mps 746 mmHg 87%
    09:00 +9°C° 0 mm 7 mps 746 mmHg 81%
    10:00 +10°C° 0 mm 8 mps 746 mmHg 74%
    11:00 +11°C° 0 mm 9 mps 746 mmHg 60%
    12:00 +12°C° 0 mm 9 mps 746 mmHg 46%
    13:00 +14°C° 0 mm 10 mps 746 mmHg 33%
    14:00 +12°C° 0.1 mm 9 mps 746 mmHg 38%
    15:00 +11°C° 0.1 mm 8 mps 746 mmHg 42%
    16:00 +9°C° 0.1 mm 7 mps 746 mmHg 47%
    17:00 +7°C° 0.1 mm 8 mps 747 mmHg 51%
    18:00 +6°C° 0.1 mm 8 mps 749 mmHg 55%
    19:00 +5°C° 0.1 mm 9 mps 750 mmHg 59%
    20:00 +4°C° 0 mm 7 mps 751 mmHg 62%
    21:00 +5°C° 0 mm 4 mps 752 mmHg 64%
    22:00 +6°C° 0 mm 2 mps 753 mmHg 66%
    23:00 +6°C° 0 mm 2 mps 754 mmHg 66%

    Day after tomorrow, 27 February, Thursday

    Time Temperature Precipitation Wind Pressure Humidity
    00:00 +4°C° 0 mm 3 mps 755 mmHg 67%
    01:00 +4°C° 0 mm 3 mps 756 mmHg 67%
    02:00 +4°C° 0 mm 3 mps 756 mmHg 63%
    03:00 +3°C° 0 mm 3 mps 757 mmHg 60%
    04:00 +3°C° 0 mm 4 mps 757 mmHg 57%
    05:00 +2°C° 0 mm 3 mps 758 mmHg 57%
    06:00 +2°C° 0 mm 3 mps 758 mmHg 57%
    07:00 +3°C° 0 mm 2 mps 759 mmHg 57%
    08:00 +4°C° 0 mm 2 mps 759 mmHg 54%
    09:00 +5°C° 0 mm 2 mps 759 mmHg 51%
    10:00 +7°C° 0 mm 1 mps 760 mmHg 48%
    11:00 +7°C° 0 mm 2 mps 759 mmHg 45%
    12:00 +8°C° 0 mm 2 mps 759 mmHg 42%
    13:00 +9°C° 0 mm 3 mps 758 mmHg 40%
    14:00 +9°C° 0 mm 3 mps 757 mmHg 39%
    15:00 +10°C° 0 mm 3 mps 756 mmHg 39%
    16:00 +10°C° 0 mm 3 mps 755 mmHg 38%
    17:00 +10°C° 0 mm 3 mps 755 mmHg 42%
    18:00 +9°C° 0 mm 3 mps 755 mmHg 45%
    19:00 +8°C° 0 mm 3 mps 755 mmHg 48%
    20:00 +8°C° 0 mm 2 mps 754 mmHg 51%
    21:00 +7°C° 0 mm 2 mps 754 mmHg 53%
    22:00 +7°C° 0 mm 2 mps 753 mmHg 55%
    23:00 +6°C° 0 mm 2 mps 753 mmHg 57%

    28 February, Friday

    Time Temperature Precipitation Wind Pressure Humidity
    00:00 +5°C° 0 mm 3 mps 753 mmHg 58%
    01:00 +5°C° 0 mm 3 mps 753 mmHg 60%
    02:00 +4°C° 0 mm 3 mps 753 mmHg 61%
    03:00 +4°C° 0 mm 3 mps 754 mmHg 62%
    04:00 +3°C° 0 mm 3 mps 754 mmHg 63%
    05:00 +4°C° 0 mm 2 mps 755 mmHg 63%
    06:00 +5°C° 0 mm 1 mps 756 mmHg 62%
    07:00 +5°C° 0 mm 1 mps 757 mmHg 62%
    08:00 +6°C° 0 mm 1 mps 758 mmHg 58%
    09:00 +6°C° 0 mm 2 mps 759 mmHg 55%
    10:00 +8°C° 0 mm 2 mps 760 mmHg 52%
    11:00 +9°C° 0 mm 2 mps 760 mmHg 46%
    12:00 +10°C° 0 mm 2 mps 761 mmHg 41%
    13:00 +13°C° 0 mm 1 mps 761 mmHg 36%
    14:00 +13°C° 0 mm 2 mps 761 mmHg 38%
    15:00 +12°C° 0 mm 2 mps 761 mmHg 40%
    16:00 +11°C° 0 mm 3 mps 761 mmHg 42%
    17:00 +10°C° 0 mm 3 mps 762 mmHg 48%
    18:00 +9°C° 0 mm 2 mps 762 mmHg 53%
    19:00 +8°C° 0 mm 2 mps 763 mmHg 59%
    20:00 +7°C° 0 mm 2 mps 763 mmHg 60%
    21:00 +7°C° 0 mm 2 mps 763 mmHg 60%
    22:00 +7°C° 0 mm 2 mps 764 mmHg 61%
    23:00 +6°C° 0 mm 2 mps 763 mmHg 62%

    29 February, Saturday

    Time Temperature Precipitation Wind Pressure Humidity
    00:00 +5°C° 0 mm 3 mps 763 mmHg 62%
    01:00 +5°C° 0 mm 3 mps 763 mmHg 62%
    02:00 +4°C° 0 mm 4 mps 763 mmHg 63%
    03:00 +4°C° 0 mm 4 mps 763 mmHg 64%
    04:00 +4°C° 0 mm 4 mps 762 mmHg 65%
    05:00 +4°C° 0 mm 4 mps 762 mmHg 64%
    06:00 +3°C° 0 mm 4 mps 762 mmHg 64%
    07:00 +2°C° 0 mm 5 mps 762 mmHg 63%
    08:00 +5°C° 0 mm 5 mps 762 mmHg 60%
    09:00 +6°C° 0 mm 5 mps 761 mmHg 57%
    10:00 +7°C° 0 mm 5 mps 761 mmHg 54%
    11:00 +8°C° 0 mm 5 mps 760 mmHg 52%
    12:00 +10°C° 0 mm 4 mps 760 mmHg 51%
    13:00 +11°C° 0 mm 4 mps 759 mmHg 50%
    14:00 +11°C° 0 mm 3 mps 759 mmHg 52%
    15:00 +11°C° 0 mm 3 mps 758 mmHg 55%
    16:00 +12°C° 0 mm 2 mps 758 mmHg 57%
    17:00 +10°C° 0 mm 2 mps 757 mmHg 61%
    18:00 +11°C° 0 mm 1 mps 757 mmHg 66%
    19:00 +10°C° 0 mm 1 mps 757 mmHg 70%
    20:00 +10°C° 0 mm 1 mps 757 mmHg 73%
    21:00 +8°C° 0 mm 2 mps 757 mmHg 75%
    22:00 +8°C° 0 mm 2 mps 757 mmHg 78%
    23:00 +8°C° 0.3 mm 2 mps 756 mmHg 81%

    1 March, Sunday

    Time Temperature Precipitation Wind Pressure Humidity
    00:00 +7°C° 0.3 mm 2 mps 756 mmHg 83%
    01:00 +7°C° 0.3 mm 2 mps 755 mmHg 86%
    02:00 +7°C° 0.3 mm 2 mps 755 mmHg 87%
    03:00 +7°C° 0.3 mm 2 mps 755 mmHg 88%
    04:00 +7°C° 0.3 mm 2 mps 754 mmHg 89%
    05:00 +7°C° 1 mm 2 mps 754 mmHg 90%
    06:00 +7°C° 1 mm 2 mps 754 mmHg 91%
    07:00 +7°C° 1 mm 2 mps 754 mmHg 92%
    08:00 +7°C° 1 mm 2 mps 754 mmHg 91%
    09:00 +7°C° 1 mm 2 mps 754 mmHg 89%
    10:00 +7°C° 1 mm 2 mps 754 mmHg 88%
    11:00 +8°C° 0.3 mm 2 mps 754 mmHg 85%
    12:00 +9°C° 0.3 mm 2 mps 755 mmHg 82%
    13:00 +9°C° 0.3 mm 2 mps 755 mmHg 79%
    14:00 +9°C° 0 mm 3 mps 755 mmHg 79%
    15:00 +9°C° 0 mm 3 mps 755 mmHg 80%
    16:00 +7°C° 0 mm 4 mps 754 mmHg 80%
    17:00 +7°C° 0 mm 4 mps 755 mmHg 80%
    18:00 +7°C° 0 mm 4 mps 755 mmHg 81%
    19:00 +6°C° 0 mm 4 mps 755 mmHg 81%
    20:00 +7°C° 0 mm 3 mps 756 mmHg 81%
    21:00 +7°C° 0 mm 2 mps 756 mmHg 81%
    22:00 +8°C° 0 mm 1 mps 756 mmHg 81%
    23:00 +7°C° 0 mm 2 mps 756 mmHg 82%
    Show more